ONEWEB-0114 (47262 NORAD) Tracking and Keplerian Element Data

This shows tracking and keplerian element data for the satellite.

Feedback or suggestion? Click here.




ElementValue
Catalog47262
NameONEWEB-0114
Epoch Orbit1635
Epoch Day102.25003472
Epoch Year2021
RAAN6.7661
Inclination87.9145
Eccentricity0.0001559
Argument of Perigee92.2015
Mean Anonmoly212.1564
Mean Motion13.18931875
Decay Rate1.3E-07
L11 47262U 20100E 21102.25003472 .00000013 00000-0 00000+0 0 9996
L22 47262 87.9145 6.7661 0001559 92.2015 212.1564 13.18931875 16354

Live tracking and technical data element details for ONEWEB-0114 (NORAD 47262). ONEWEB-0114 can be tracked NOW for your location showing map with azimuth and elevation plus other details from your city location.

Track the satellite on the map from your city or location and see movement details for azimuth, elevation, latitude, longitude, range, height, and movement on the map or in text.







IsCatalogInMostPopularTable: catalog: 47262, numindb: 37
Update: records affected: 1



GetName: 47262 ONEWEB-0114

Hit Count: updated at: Tue, 13 Apr 2021 03:41:06 GMT